Theta_e
317 318 315 315 316 316 314 312 312 312 313 314 314 315 316 317 317 319 321 329 331 350 349 353 353 354 354 348 347 347 353 356 354 352 353 350 351 350 351 350 350 348 347 347 347
316 316 315 317 318 317 315 312 312 312 313 314 314 315 316 318 319 322 323 329 335 355 351 346 347 350 344 346 342 346 351 353 349 348 351 350 351 352 352 352 351 348 348 348 347
316 316 316 317 317 318 317 313 312 312 313 313 314 315 316 318 321 335 328 327 336 346 341 339 344 346 344 342 346 348 349 349 350 347 348 349 349 347 352 353 350 348 348 348 344
317 319 320 320 318 316 317 315 313 312 313 314 314 315 316 317 341 338 331 327 327 349 341 340 339 338 342 345 344 347 347 348 349 346 350 350 350 347 350 351 351 348 348 345 342
318 321 322 322 322 322 315 316 314 313 314 314 314 315 316 318 325 333 330 329 328 347 344 341 340 341 346 344 345 347 346 346 347 348 351 351 351 352 351 351 349 346 345 342 342
319 319 320 321 322 322 322 314 315 314 314 314 314 315 315 326 334 338 332 331 333 349 341 346 343 341 343 344 346 346 346 346 345 350 348 351 352 352 351 349 347 345 342 341 342
320 319 319 320 321 321 322 315 315 315 314 314 314 314 316 328 339 338 333 331 336 349 348 342 346 348 345 346 342 345 348 346 347 349 350 350 354 354 351 349 347 344 341 341 341
322 320 320 320 320 322 323 316 314 314 314 314 314 314 318 337 340 340 331 331 337 349 350 352 354 347 347 344 345 345 346 351 350 349 349 349 355 351 350 349 346 342 339 339 339
323 321 320 321 320 322 324 315 314 314 314 314 315 317 324 330 332 336 343 340 344 348 349 353 350 347 341 338 338 344 346 346 353 346 347 351 353 351 350 349 348 344 340 338 337
324 323 320 321 322 321 323 323 314 314 314 321 328 325 326 329 329 333 340 345 347 348 348 348 343 342 334 336 341 339 340 346 351 345 344 353 352 350 350 349 348 347 345 343 337
325 324 322 319 322 322 321 324 329 323 315 320 321 323 327 328 328 330 343 344 347 346 337 344 343 340 338 335 339 337 337 339 346 345 342 352 350 350 348 348 347 347 346 344 344
326 325 323 321 320 324 323 322 326 331 328 330 328 324 326 326 328 328 334 346 342 338 340 341 342 340 338 338 340 338 334 334 348 344 346 348 352 349 348 347 346 347 347 346 345
326 325 324 322 320 321 324 328 327 327 326 330 331 325 325 326 327 330 335 342 337 337 336 331 333 335 341 337 333 326 331 331 343 349 351 352 354 351 348 348 347 346 347 346 346
326 326 324 323 322 324 330 330 327 329 323 327 329 326 326 327 329 335 337 341 335 337 336 331 331 333 329 331 326 326 326 331 352 354 358 348 358 345 350 349 348 347 346 346 346
326 326 325 323 322 328 326 325 325 329 330 329 327 326 327 328 328 329 331 339 334 333 331 331 331 328 329 330 327 325 328 327 351 342 346 346 349 344 343 350 350 348 347 347 346
326 326 325 324 322 324 328 328 328 325 331 326 325 324 324 325 326 327 331 337 335 331 329 328 329 327 327 327 328 327 326 321 321 330 341 344 343 344 341 345 349 348 349 349 349
327 327 325 323 323 327 328 329 327 328 329 326 324 324 322 322 325 331 330 328 327 327 325 325 327 327 329 327 324 326 320 322 325 328 334 340 341 341 342 341 346 347 347 347 349
327 326 324 323 323 329 328 325 332 333 334 333 322 322 323 323 324 325 324 324 322 323 322 327 329 330 329 325 325 326 321 321 332 331 341 338 349 344 340 342 342 345 345 346 347
327 326 324 324 323 323 329 326 329 331 333 333 326 323 321 324 324 324 322 323 324 322 326 326 329 331 327 326 326 327 326 325 326 336 341 342 344 340 343 341 342 342 341 343 345
327 325 325 325 323 326 324 325 328 332 330 330 331 325 321 322 326 324 323 325 326 325 325 327 330 328 332 330 330 329 325 325 324 344 348 344 342 345 343 343 343 342 339 342 341
327 325 333 328 321 327 326 325 330 331 330 332 332 331 330 332 330 327 328 326 327 327 325 323 322 325 331 331 330 330 328 324 320 329 343 346 341 336 342 343 341 341 339 339 338
326 323 331 330 326 324 324 328 330 329 330 330 330 327 332 330 332 332 330 326 330 325 325 325 319 327 331 331 330 329 332 320 319 330 336 340 342 338 340 340 341 339 337 336 336
329 328 329 329 325 325 325 327 328 328 328 329 332 331 329 331 331 331 333 333 333 330 329 329 324 325 327 327 328 332 333 325 319 325 330 338 342 335 337 340 340 339 337 337 339
332 331 334 334 332 330 329 329 328 330 332 334 333 329 329 330 328 333 334 334 333 331 330 328 321 324 325 328 327 331 332 327 324 329 331 334 339 338 337 340 339 340 339 342 343
326 327 323 327 328 327 327 329 336 332 333 333 331 332 332 332 335 336 335 332 331 332 329 324 327 325 324 329 331 331 330 327 327 324 325 334 338 338 337 338 339 339 338 339 347
315 316 318 322 329 327 323 326 334 336 332 330 331 333 330 330 334 333 332 332 333 328 330 322 327 329 328 328 328 328 327 328 327 328 334 335 335 333 335 338 340 340 339 339 350
312 315 317 326 324 321 321 324 328 330 334 333 332 330 331 332 331 331 331 331 331 332 329 326 323 322 325 326 330 329 329 330 330 328 334 335 332 334 336 339 339 339 340 342 352
Wind_Speed
17 12 9 7 6 6 6 5 5 6 6 8 7 8 4 4 7 7 4 6 7 11 11 8 3 7 10 9 8 5 1 4 5 6 10 12 9 19 18 24 9 12 23 37 41
16 12 9 8 7 7 7 5 4 3 5 7 6 6 4 4 7 9 5 8 12 12 11 3 13 17 10 8 3 2 1 5 3 6 13 19 16 14 10 16 4 11 28 39 36
16 13 11 10 8 8 7 6 3 1 4 5 5 5 4 3 4 3 6 11 14 18 18 10 13 13 9 6 3 2 4 4 5 22 11 18 16 4 18 3 13 32 39 38 35
17 15 13 13 11 9 7 6 4 1 2 4 5 6 6 4 4 2 10 14 10 15 9 15 17 10 8 5 5 2 15 19 9 11 13 12 8 6 11 7 18 31 49 40 36
17 14 13 13 12 11 9 6 4 1 2 4 5 7 7 4 3 1 6 14 16 13 8 5 12 10 4 5 6 5 9 17 19 23 15 13 5 8 12 20 22 34 33 35 36
19 14 13 13 12 11 10 6 3 1 1 4 5 7 6 3 4 2 4 14 18 18 12 6 6 6 10 4 3 5 13 23 12 20 20 18 16 9 13 27 29 33 31 33 34
20 15 13 12 12 11 9 6 2 1 2 3 5 7 8 8 4 1 7 14 13 20 18 8 7 6 12 5 10 7 6 6 8 16 14 27 6 10 25 26 27 26 28 32 32
21 17 13 12 11 11 10 7 2 1 3 4 4 6 6 8 6 4 11 18 14 11 15 16 13 11 5 4 5 1 4 3 6 15 4 8 5 18 27 29 24 25 27 31 30
21 18 14 12 10 10 9 8 3 2 5 4 4 3 3 13 17 9 6 13 18 17 17 7 2 6 5 3 4 1 4 5 4 4 5 5 7 20 26 24 24 25 27 26 27
21 18 14 12 9 9 8 6 4 1 4 7 4 1 8 21 19 18 9 5 14 14 20 8 9 8 5 4 5 4 6 6 6 5 9 8 9 16 26 24 25 24 25 23 31
21 18 15 10 10 9 8 5 2 2 12 8 7 9 1 17 19 22 18 13 16 12 6 20 4 10 18 13 12 4 10 7 4 8 7 7 17 15 22 20 21 23 25 26 26
22 19 16 11 8 10 12 9 6 2 10 17 18 20 18 5 13 19 21 14 8 6 13 2 12 20 14 13 10 11 16 7 3 2 6 5 9 14 18 22 27 27 25 29 26
22 20 16 12 8 11 12 12 14 13 3 10 9 16 12 14 18 23 21 25 7 5 8 9 17 14 12 14 1 7 8 6 10 4 9 11 4 4 6 17 22 26 31 27 31
23 21 17 13 7 5 3 11 17 6 4 6 6 9 13 13 8 18 23 18 5 12 11 8 10 12 12 11 6 3 6 6 19 13 7 4 4 6 10 9 17 24 27 30 29
24 22 18 11 8 6 9 15 16 2 4 3 8 8 13 13 2 13 24 24 10 10 2 11 10 10 7 9 4 8 3 4 20 7 7 3 5 2 8 7 12 22 30 35 36
23 22 19 14 11 4 7 5 6 6 4 3 11 7 6 7 11 3 27 25 13 4 3 10 19 4 7 7 0 2 5 8 5 5 2 5 4 4 2 7 13 21 30 35 37
21 21 21 15 6 5 3 5 5 3 4 5 6 5 9 6 3 7 9 7 6 2 7 8 13 8 7 5 7 6 7 3 3 3 3 4 7 6 7 9 3 7 8 13 30
21 19 20 13 8 12 4 4 2 6 6 6 6 2 9 4 4 6 7 7 7 5 4 1 10 5 5 9 9 4 8 6 3 2 1 8 3 5 7 11 6 14 12 11 12
20 18 17 7 13 16 5 2 7 7 3 5 5 2 5 4 6 4 8 9 10 12 9 6 7 4 5 8 8 3 2 5 7 3 5 2 1 6 7 6 11 16 10 10 12
20 18 14 6 16 18 5 7 6 5 6 3 6 9 9 6 3 1 6 7 8 12 10 6 4 4 5 5 3 1 2 5 4 4 1 1 2 5 8 7 6 11 8 13 15
13 9 5 16 20 8 3 7 6 12 5 1 10 6 6 6 7 7 8 10 11 6 16 7 3 8 4 2 4 5 5 3 4 5 5 3 6 7 9 10 7 5 11 13 14
5 2 4 21 5 2 3 5 11 13 32 2 4 8 6 8 7 2 4 7 16 12 9 7 5 2 4 4 2 6 4 5 5 2 3 5 5 7 8 5 7 8 5 8 12
11 5 14 22 3 2 6 7 7 13 20 7 5 3 10 2 3 3 6 5 12 4 5 2 2 3 8 8 9 4 3 4 4 3 2 6 5 3 4 10 12 7 6 5 5
6 4 6 1 7 3 5 6 7 5 7 4 5 11 5 3 7 4 6 6 7 4 7 8 4 7 6 7 5 4 3 2 7 4 4 5 5 6 11 16 15 21 18 14 5
10 4 6 4 5 7 3 8 15 8 2 5 6 5 5 8 5 6 5 6 6 1 2 5 1 5 6 8 4 6 4 3 3 6 6 8 11 20 22 24 26 32 27 17 6
8 7 10 8 14 6 8 8 14 9 9 9 5 5 11 7 3 3 6 3 3 7 4 4 3 2 3 6 2 5 8 7 3 3 9 12 5 6 16 19 18 26 28 21 18
19 10 4 7 8 5 6 7 10 12 7 16 12 2 10 10 20 11 9 11 9 4 1 2 3 3 6 4 4 4 5 4 4 2 11 7 11 8 6 13 22 24 30 29 24
Wind_Direction
350 354 356 355 345 337 328 311 287 255 228 233 230 241 233 243 269 282 296 99 89 112 134 135 129 132 136 124 207 176 168 234 240 178 96 158 182 175 165 139 162 186 166 159 162
7 11 10 4 356 349 348 337 305 255 220 221 221 229 222 243 274 289 181 119 126 125 102 97 149 156 120 137 110 26 227 249 295 78 132 136 138 143 139 158 101 125 145 159 162
14 18 16 8 1 353 354 355 332 267 214 212 198 209 202 233 293 55 155 145 139 109 107 76 160 170 99 88 86 185 243 345 194 143 142 149 172 128 136 201 174 152 156 160 159
19 21 21 19 13 5 354 360 4 28 202 190 176 187 185 189 136 102 155 155 159 143 130 100 106 86 66 102 198 260 250 274 252 144 143 160 157 106 152 184 175 167 160 159 157
12 10 10 11 6 7 2 358 15 31 163 164 170 172 184 215 192 206 151 169 171 180 135 65 143 104 109 176 213 203 300 313 316 153 117 117 123 104 99 137 148 145 156 159 159
7 360 0 3 1 2 2 1 7 47 130 158 172 174 182 234 152 174 201 178 177 170 89 246 178 124 103 291 243 232 282 289 308 134 128 116 126 91 128 136 145 157 159 163 166
4 357 352 356 358 359 0 3 15 80 122 161 174 185 197 182 149 359 189 182 175 182 184 233 268 235 127 271 257 286 300 343 268 118 122 112 85 128 150 144 145 160 166 169 171
360 355 348 350 355 1 6 7 26 114 143 163 173 189 223 182 183 229 162 178 187 211 238 246 253 207 198 206 323 341 13 57 209 145 142 97 126 149 157 148 151 160 169 175 181
358 353 343 340 348 358 14 26 28 130 140 147 149 196 246 176 209 211 195 184 182 215 248 274 251 214 151 128 300 235 261 211 193 140 126 94 123 166 162 156 155 171 177 180 179
355 351 341 326 334 339 357 20 45 61 177 150 187 242 200 208 201 209 206 222 203 224 248 296 249 323 192 124 213 165 244 179 187 193 111 113 130 157 166 162 165 175 184 186 185
349 348 341 319 315 320 319 317 282 243 207 213 230 226 353 227 205 215 208 224 235 242 116 185 196 233 240 206 213 199 239 205 234 209 101 125 128 158 165 169 165 178 187 190 194
344 344 341 325 297 298 298 284 278 302 292 292 246 253 260 203 194 211 208 206 228 236 101 26 234 250 248 259 241 228 222 200 184 131 89 92 125 154 171 175 171 178 191 197 197
338 339 342 332 292 283 296 321 330 315 289 295 246 235 249 200 214 201 202 210 218 261 237 174 253 276 248 272 308 318 135 177 161 171 91 129 64 175 199 166 173 182 194 197 197
332 332 338 336 300 280 279 355 347 332 53 275 194 244 240 192 218 202 205 200 204 228 257 247 266 233 273 267 134 298 168 129 132 131 164 187 191 233 176 181 177 187 191 195 201
325 325 329 323 266 258 343 317 325 132 5 238 210 221 196 182 149 211 210 207 212 239 65 258 293 314 306 260 205 217 234 118 161 113 126 229 99 241 130 200 196 187 197 198 198
320 318 318 313 272 262 319 318 342 43 268 280 181 176 129 214 231 243 189 204 238 231 261 253 291 223 238 296 257 333 2 35 71 128 121 206 102 16 328 224 201 195 199 200 203
318 311 307 296 276 192 308 342 46 141 306 233 185 167 181 218 236 152 158 195 191 124 279 314 274 275 200 274 344 78 61 319 342 28 209 151 66 224 301 310 130 160 173 212 208
317 307 295 281 230 192 299 55 193 235 250 279 170 252 182 179 207 184 130 200 260 161 40 231 316 211 237 195 199 192 151 154 226 143 84 36 131 250 166 299 199 145 139 159 185
318 311 293 296 199 193 176 86 211 217 226 20 50 65 285 225 165 180 194 205 213 170 186 178 257 296 199 196 127 270 247 191 102 61 101 160 329 305 327 263 241 114 149 154 141
326 319 297 190 176 166 92 235 229 208 7 330 205 187 227 206 134 45 184 223 233 186 177 233 261 305 311 78 33 168 223 14 26 138 102 349 214 216 244 251 292 128 153 170 121
335 322 31 144 158 155 170 234 274 264 294 48 310 279 217 144 165 172 217 267 212 274 171 178 202 293 21 33 146 10 352 39 114 124 150 117 260 216 220 224 231 58 205 170 148
5 358 169 156 102 193 189 229 303 318 310 249 267 309 161 165 181 142 240 220 324 162 148 205 133 92 197 219 119 170 204 139 112 311 48 118 253 236 237 296 280 330 305 96 173
342 302 160 179 143 256 295 295 274 290 282 270 350 246 289 236 107 185 304 293 41 91 149 189 47 38 352 353 348 33 24 86 95 88 188 131 244 209 250 254 235 229 231 275 261
9 16 356 185 73 61 2 288 317 262 288 25 347 6 304 104 343 62 6 312 320 95 109 90 110 152 180 204 181 301 300 107 116 104 182 196 189 200 221 228 225 211 214 201 256
22 30 15 335 340 349 330 347 15 351 236 357 18 357 16 32 33 9 10 321 345 27 111 97 256 181 212 208 238 285 271 292 157 172 151 189 176 210 200 218 203 205 209 204 206
35 11 351 306 318 330 359 6 9 345 29 345 39 349 65 64 94 320 349 353 308 341 37 32 266 158 288 238 185 243 283 320 283 55 74 140 241 235 206 203 211 219 198 193 171
27 13 339 320 341 29 346 343 349 350 328 11 1 24 44 339 313 309 305 269 246 228 149 82 116 60 267 331 359 10 224 147 159 135 138 160 213 147 182 207 213 194 184 183 162